Location: Haliburton Scout Reserve
(45.0900°N, 78.3200°W)
Time: 18:08:19
(UTC-05:00)

Courier 1B - Pass Details

Date: 29 November 2023
Orbit: 962 x 1209 km, 28.3° (Epoch: 23 February)

Event Time Altitude Azimuth Distance (km) Brightness Sun altitude
Rises 11:04:43 0° 208° (SSW) 3,644 11.2 22.2°
Reaches altitude 10° 11:10:29 10° 168° (SSE) 2,682 12.0 22.4°
Maximum altitude 11:11:17 10° 161° (SSE) 2,665 11.9 22.4°
Drops below altitude 10° 11:12:04 10° 153° (SSE) 2,683 11.6 22.5°
Sets 11:17:50 0° 113° (ESE) 3,650 11.0 22.7°
